Location: *
(48.8489°N, 2.3218°E)
Time: 22:19:37
(UTC+00:00)

Cosmos 44 Rocket - Pass Details

Date: 23 August 2019
Orbit: 653 x 737 km, 65.1° (Epoch: 22 September)

Event Time Altitude Azimuth Distance (km) Brightness Sun altitude
Rises 19:38:20 0° 321° (NW) 3,055 8.0 -7.9°
Reaches altitude 10° 19:40:42 10° 321° (NW) 2,123 7.1 -8.2°
Maximum altitude 19:45:31 85° 232° (SW) 675 3.3 -8.9°
Drops below altitude 10° 19:50:13 10° 145° (SE) 2,069 5.2 -9.6°
Enters shadow 19:50:16 10° 145° (SE) 2,090 5.2 -9.6°
